^^
Saratoga-Weather Station Historical Data
Daily Summary for September 17, 2021 Units:  Metric    English   Both
Daily Weekly Monthly Yearly Custom
  High: Low: Average:
Temperature: 7.6 °C 4.6 °C 6.2 °C
Dew Point: 6.8 °C 3.7 °C 5.2 °C
Humidity: 95% 92% 94%
Wind Speed: 7.9km/h 0km/h 1.8km/h
Wind Gust: 12.9km/h - -
Wind- - West
Pressure: 1027.8 hPa 1020.7 hPa -
Precipitation: 0.0 mm    
Historical Graphs
 
 
Tabular Data for September 17, 2021
Time Temperature Dew Point Pressure Wind Wind Speed Wind Gust Humidity Rainfall Rate (Hourly) solar
00:01 5.2 °C 4 °C 1021.0 hPa Calm     92% 0.0 mm 0 W/m2
00:06 5.2 °C 4 °C 1021.0 hPa Calm   6.4 km/h 92% 0.0 mm 0 W/m2
00:11 5.2 °C 4 °C 1021.0 hPa WNW 3.2 km/h 3.2 km/h 92% 0.0 mm 0 W/m2
00:16 5.2 °C 4 °C 1021.0 hPa West 1.4 km/h 4.8 km/h 92% 0.0 mm 0 W/m2
00:21 5.2 °C 4 °C 1021.0 hPa West 4.7 km/h 6.4 km/h 92% 0.0 mm 0 W/m2
00:26 5.2 °C 4 °C 1021.0 hPa WSW 1.4 km/h 4.8 km/h 92% 0.0 mm 0 W/m2
00:31 5.2 °C 4 °C 1021.0 hPa WSW 3.2 km/h 4.8 km/h 92% 0.0 mm 0 W/m2
00:36 5.2 °C 4 °C 1021.0 hPa West 3.2 km/h 3.2 km/h 92% 0.0 mm 0 W/m2
00:41 5.2 °C 4.2 °C 1021.0 hPa Calm   4.8 km/h 93% 0.0 mm 0 W/m2
00:46 5.2 °C 4.2 °C 1021.0 hPa West 1.4 km/h 3.2 km/h 93% 0.0 mm 0 W/m2
00:51 5.1 °C 4.1 °C 1021.0 hPa West 3.2 km/h 4.8 km/h 93% 0.0 mm 0 W/m2
00:56 5.1 °C 4.1 °C 1021.0 hPa WNW 3.2 km/h 4.8 km/h 93% 0.0 mm 0 W/m2
01:01 5.1 °C 4.1 °C 1021.0 hPa WNW 3.2 km/h 3.2 km/h 93% 0.0 mm 0 W/m2
01:06 5.1 °C 4.1 °C 1021.0 hPa Calm     93% 0.0 mm 0 W/m2
01:12 5.1 °C 4.1 °C 1021.0 hPa Calm   4.8 km/h 93% 0.0 mm 0 W/m2
01:17 5.1 °C 4.1 °C 1021.0 hPa WNW 1.4 km/h 4.8 km/h 93% 0.0 mm 0 W/m2
01:22 5.1 °C 4.1 °C 1021.0 hPa WNW 3.2 km/h 3.2 km/h 93% 0.0 mm 0 W/m2
01:27 5.1 °C 4.1 °C 1021.0 hPa West 3.2 km/h 3.2 km/h 93% 0.0 mm 0 W/m2
01:32 5.1 °C 4.1 °C 1021.0 hPa Calm   3.2 km/h 93% 0.0 mm 0 W/m2
01:37 5.1 °C 4.1 °C 1021.0 hPa Calm   1.6 km/h 93% 0.0 mm 0 W/m2
01:42 5.1 °C 4.1 °C 1020.7 hPa Calm   3.2 km/h 93% 0.0 mm 0 W/m2
01:47 5.1 °C 4.1 °C 1020.7 hPa Calm   1.6 km/h 93% 0.0 mm 0 W/m2
01:52 5.1 °C 4.1 °C 1020.7 hPa Calm   3.2 km/h 93% 0.0 mm 0 W/m2
01:57 5 °C 4 °C 1020.7 hPa Calm     93% 0.0 mm 0 W/m2
02:02 5 °C 4 °C 1020.7 hPa Calm     93% 0.0 mm 0 W/m2
02:07 5 °C 4 °C 1020.7 hPa Calm   1.6 km/h 93% 0.0 mm 0 W/m2
02:12 5 °C 4 °C 1021.0 hPa Calm   1.6 km/h 93% 0.0 mm 0 W/m2
02:17 4.9 °C 3.9 °C 1021.0 hPa Calm   1.6 km/h 93% 0.0 mm 0 W/m2
02:22 4.9 °C 3.9 °C 1021.0 hPa Calm     93% 0.0 mm 0 W/m2
02:27 4.9 °C 4 °C 1021.0 hPa Calm     94% 0.0 mm 0 W/m2
02:32 4.9 °C 4 °C 1021.0 hPa Calm   3.2 km/h 94% 0.0 mm 0 W/m2
02:37 4.9 °C 4 °C 1021.0 hPa WNW 1.4 km/h 3.2 km/h 94% 0.0 mm 0 W/m2
02:42 4.9 °C 3.9 °C 1021.0 hPa Calm     93% 0.0 mm 0 W/m2
02:47 4.9 °C 3.9 °C 1021.0 hPa Calm   3.2 km/h 93% 0.0 mm 0 W/m2
02:52 4.9 °C 3.9 °C 1021.0 hPa West 1.4 km/h 4.8 km/h 93% 0.0 mm 0 W/m2
02:57 4.9 °C 3.9 °C 1021.0 hPa West 3.2 km/h 4.8 km/h 93% 0.0 mm 0 W/m2
03:02 4.9 °C 4 °C 1021.0 hPa West 1.4 km/h 3.2 km/h 94% 0.0 mm 0 W/m2
03:07 4.9 °C 3.9 °C 1021.0 hPa West 1.4 km/h 4.8 km/h 93% 0.0 mm 0 W/m2
03:12 4.9 °C 3.9 °C 1021.0 hPa Calm   4.8 km/h 93% 0.0 mm 0 W/m2
03:17 4.9 °C 3.9 °C 1021.0 hPa West 3.2 km/h 4.8 km/h 93% 0.0 mm 0 W/m2
03:22 4.9 °C 3.9 °C 1021.0 hPa Calm   6.4 km/h 93% 0.0 mm 0 W/m2
03:27 4.9 °C 3.9 °C 1021.0 hPa West 3.2 km/h 4.8 km/h 93% 0.0 mm 0 W/m2
03:32 4.9 °C 3.9 °C 1021.0 hPa West 1.4 km/h 3.2 km/h 93% 0.0 mm 0 W/m2
03:37 4.8 °C 3.8 °C 1021.0 hPa West 1.4 km/h 3.2 km/h 93% 0.0 mm 0 W/m2
03:42 4.8 °C 3.8 °C 1021.0 hPa Calm   1.6 km/h 93% 0.0 mm 0 W/m2
03:47 4.8 °C 3.9 °C 1021.0 hPa West 3.2 km/h 3.2 km/h 94% 0.0 mm 0 W/m2
03:52 4.8 °C 3.8 °C 1021.0 hPa West 1.4 km/h 3.2 km/h 93% 0.0 mm 0 W/m2
03:57 4.8 °C 3.8 °C 1021.0 hPa West 1.4 km/h 3.2 km/h 93% 0.0 mm 0 W/m2
04:02 4.8 °C 3.9 °C 1021.0 hPa West 1.4 km/h 3.2 km/h 94% 0.0 mm 0 W/m2
04:07 4.8 °C 3.9 °C 1021.0 hPa Calm   4.8 km/h 94% 0.0 mm 0 W/m2
04:12 4.8 °C 3.9 °C 1021.0 hPa Calm   1.6 km/h 94% 0.0 mm 0 W/m2
04:17 4.7 °C 3.8 °C 1021.0 hPa Calm   3.2 km/h 94% 0.0 mm 0 W/m2
04:22 4.7 °C 3.8 °C 1021.0 hPa NW 1.4 km/h 4.8 km/h 94% 0.0 mm 0 W/m2
04:27 4.7 °C 3.8 °C 1021.0 hPa West 4.7 km/h 6.4 km/h 94% 0.0 mm 0 W/m2
04:32 4.7 °C 3.8 °C 1021.0 hPa West 1.4 km/h 4.8 km/h 94% 0.0 mm 0 W/m2
04:37 4.7 °C 3.8 °C 1021.0 hPa Calm   6.4 km/h 94% 0.0 mm 0 W/m2
04:42 4.7 °C 3.8 °C 1020.7 hPa Calm     94% 0.0 mm 0 W/m2
04:47 4.7 °C 3.8 °C 1021.0 hPa Calm     94% 0.0 mm 0 W/m2
04:52 4.6 °C 3.7 °C 1020.7 hPa Calm   3.2 km/h 94% 0.0 mm 0 W/m2
04:57 4.6 °C 3.7 °C 1020.7 hPa Calm     94% 0.0 mm 0 W/m2
05:02 4.6 °C 3.7 °C 1021.0 hPa Calm     94% 0.0 mm 0 W/m2
05:07 4.6 °C 3.7 °C 1021.0 hPa Calm     94% 0.0 mm 0 W/m2
05:12 4.7 °C 3.8 °C 1021.0 hPa NW 3.2 km/h 3.2 km/h 94% 0.0 mm 0 W/m2
05:17 4.7 °C 3.8 °C 1021.0 hPa NW 1.4 km/h 4.8 km/h 94% 0.0 mm 0 W/m2
05:22 4.7 °C 3.8 °C 1021.0 hPa WSW 1.4 km/h 4.8 km/h 94% 0.0 mm 0 W/m2
05:27 4.7 °C 3.8 °C 1021.0 hPa West 4.7 km/h 9.7 km/h 94% 0.0 mm 0 W/m2
05:32 4.7 °C 3.8 °C 1021.0 hPa West 4.7 km/h 4.8 km/h 94% 0.0 mm 0 W/m2
05:37 4.7 °C 3.8 °C 1021.0 hPa WNW 3.2 km/h 9.7 km/h 94% 0.0 mm 0 W/m2
05:42 4.7 °C 3.8 °C 1021.0 hPa WNW 3.2 km/h 11.3 km/h 94% 0.0 mm 0 W/m2
05:47 4.7 °C 3.8 °C 1021.0 hPa WNW 4.7 km/h 6.4 km/h 94% 0.0 mm 0 W/m2
05:52 4.7 °C 3.8 °C 1021.0 hPa West 4.7 km/h 11.3 km/h 94% 0.0 mm 0 W/m2
05:57 4.7 °C 3.8 °C 1021.0 hPa West 3.2 km/h 4.8 km/h 94% 0.0 mm 0 W/m2
06:02 4.7 °C 3.8 °C 1021.3 hPa West 6.4 km/h 9.7 km/h 94% 0.0 mm 0 W/m2
06:07 4.7 °C 3.8 °C 1021.3 hPa WNW 6.4 km/h 9.7 km/h 94% 0.0 mm 0 W/m2
06:12 4.7 °C 3.8 °C 1021.3 hPa West 3.2 km/h 6.4 km/h 94% 0.0 mm 0 W/m2
06:17 4.7 °C 3.8 °C 1021.3 hPa WNW 4.7 km/h 8 km/h 94% 0.0 mm 0 W/m2
06:22 4.7 °C 3.8 °C 1021.3 hPa West 3.2 km/h 12.9 km/h 94% 0.0 mm 0 W/m2
06:27 4.7 °C 3.8 °C 1021.3 hPa West 1.4 km/h 6.4 km/h 94% 0.0 mm 0 W/m2
06:32 4.7 °C 3.8 °C 1021.7 hPa West 3.2 km/h 12.9 km/h 94% 0.0 mm 0 W/m2
06:37 4.7 °C 3.8 °C 1021.7 hPa NW 1.4 km/h 6.4 km/h 94% 0.0 mm 0 W/m2
06:42 4.7 °C 3.8 °C 1021.7 hPa WNW 3.2 km/h 6.4 km/h 94% 0.0 mm 0 W/m2
06:47 4.7 °C 3.8 °C 1021.7 hPa NW 1.4 km/h 4.8 km/h 94% 0.0 mm 0 W/m2
06:52 4.8 °C 3.9 °C 1021.7 hPa WNW 3.2 km/h 6.4 km/h 94% 0.0 mm 0 W/m2
06:57 4.8 °C 3.9 °C 1021.7 hPa West 3.2 km/h 4.8 km/h 94% 0.0 mm 0 W/m2
07:02 4.8 °C 3.9 °C 1021.7 hPa WNW 3.2 km/h 6.4 km/h 94% 0.0 mm 0 W/m2
07:07 4.8 °C 3.9 °C 1021.7 hPa WNW 4.7 km/h 6.4 km/h 94% 0.0 mm 0 W/m2
07:12 4.8 °C 3.9 °C 1021.7 hPa NW 3.2 km/h 8 km/h 94% 0.0 mm 0 W/m2
07:17 4.8 °C 3.9 °C 1022.0 hPa WNW 1.4 km/h 4.8 km/h 94% 0.0 mm 0 W/m2
07:22 4.8 °C 3.9 °C 1022.0 hPa NNW 1.4 km/h 8 km/h 94% 0.0 mm 0 W/m2
07:27 4.8 °C 3.9 °C 1022.0 hPa SW 4.7 km/h 9.7 km/h 94% 0.0 mm 0 W/m2
07:32 4.8 °C 3.9 °C 1022.0 hPa West 3.2 km/h 4.8 km/h 94% 0.0 mm 0 W/m2
07:37 4.8 °C 3.9 °C 1022.4 hPa NW 3.2 km/h 6.4 km/h 94% 0.0 mm 0 W/m2
07:42 4.8 °C 3.9 °C 1022.0 hPa West 4.7 km/h 4.8 km/h 94% 0.0 mm 0 W/m2
07:47 4.8 °C 3.9 °C 1022.0 hPa Calm   4.8 km/h 94% 0.0 mm 0 W/m2
07:52 4.8 °C 3.9 °C 1022.0 hPa NW 3.2 km/h 8 km/h 94% 0.0 mm 0 W/m2
07:57 4.8 °C 3.9 °C 1022.0 hPa Calm     94% 0.0 mm 0 W/m2
08:02 4.8 °C 3.9 °C 1022.4 hPa ESE 1.4 km/h 8 km/h 94% 0.0 mm 0 W/m2
08:07 4.9 °C 4 °C 1022.4 hPa West 1.4 km/h 4.8 km/h 94% 0.0 mm 5 W/m2
08:12 4.9 °C 4 °C 1022.4 hPa WSW 1.4 km/h 1.6 km/h 94% 0.0 mm 5 W/m2
08:17 4.9 °C 4 °C 1022.4 hPa West 1.4 km/h 4.8 km/h 94% 0.0 mm 7 W/m2
08:22 4.9 °C 4 °C 1022.4 hPa West 3.2 km/h 3.2 km/h 94% 0.0 mm 11 W/m2
08:27 4.9 °C 4 °C 1022.4 hPa Calm   3.2 km/h 94% 0.0 mm 14 W/m2
08:32 4.9 °C 4 °C 1022.4 hPa WNW 1.4 km/h 1.6 km/h 94% 0.0 mm 18 W/m2
08:37 4.9 °C 4 °C 1022.4 hPa Calm   3.2 km/h 94% 0.0 mm 19 W/m2
08:42 5 °C 4.1 °C 1022.4 hPa Calm   3.2 km/h 94% 0.0 mm 25 W/m2
08:47 5 °C 4.1 °C 1022.4 hPa Calm   4.8 km/h 94% 0.0 mm 28 W/m2
08:52 5.1 °C 4.2 °C 1022.4 hPa Calm   3.2 km/h 94% 0.0 mm 40 W/m2
08:57 5.1 °C 4.2 °C 1022.4 hPa Calm   4.8 km/h 94% 0.0 mm 42 W/m2
09:02 5.1 °C 4.2 °C 1022.4 hPa WNW 4.7 km/h 9.7 km/h 94% 0.0 mm 37 W/m2
09:07 5.1 °C 4.2 °C 1022.4 hPa Calm     94% 0.0 mm 42 W/m2
09:12 5.2 °C 4.3 °C 1022.4 hPa NW 1.4 km/h 8 km/h 94% 0.0 mm 32 W/m2
09:17 5.2 °C 4.3 °C 1022.4 hPa Calm   4.8 km/h 94% 0.0 mm 54 W/m2
09:22 5.2 °C 4.3 °C 1022.4 hPa NW 6.4 km/h 6.4 km/h 94% 0.0 mm 72 W/m2
09:27 5.3 °C 4.4 °C 1022.7 hPa Calm   3.2 km/h 94% 0.0 mm 100 W/m2
09:32 5.3 °C 4.4 °C 1022.4 hPa Calm   3.2 km/h 94% 0.0 mm 79 W/m2
09:37 5.4 °C 4.5 °C 1022.4 hPa West 3.2 km/h 4.8 km/h 94% 0.0 mm 81 W/m2
09:42 5.4 °C 4.5 °C 1022.7 hPa West 3.2 km/h 6.4 km/h 94% 0.0 mm 51 W/m2
09:47 5.6 °C 4.7 °C 1023.0 hPa NW 3.2 km/h 3.2 km/h 94% 0.0 mm 54 W/m2
09:52 5.6 °C 4.7 °C 1023.0 hPa West 1.4 km/h 6.4 km/h 94% 0.0 mm 54 W/m2
09:57 5.7 °C 4.8 °C 1023.0 hPa NNW 4.7 km/h 6.4 km/h 94% 0.0 mm 47 W/m2
10:02 5.7 °C 4.8 °C 1023.0 hPa West 4.7 km/h 11.3 km/h 94% 0.0 mm 60 W/m2
10:07 5.7 °C 4.8 °C 1023.4 hPa NW 6.4 km/h 6.4 km/h 94% 0.0 mm 49 W/m2
10:12 5.7 °C 4.8 °C 1023.0 hPa WSW 3.2 km/h 8 km/h 94% 0.0 mm 62 W/m2
10:17 5.7 °C 4.8 °C 1023.0 hPa SW 1.4 km/h 1.6 km/h 94% 0.0 mm 72 W/m2
10:22 5.8 °C 4.9 °C 1023.0 hPa Calm     94% 0.0 mm 86 W/m2
10:27 5.8 °C 4.9 °C 1023.4 hPa WSW 1.4 km/h 3.2 km/h 94% 0.0 mm 83 W/m2
10:32 5.8 °C 4.9 °C 1023.4 hPa NNW 3.2 km/h 6.4 km/h 94% 0.0 mm 74 W/m2
10:37 5.9 °C 5 °C 1023.0 hPa Calm   8 km/h 94% 0.0 mm 98 W/m2
10:42 5.9 °C 5 °C 1023.4 hPa Calm   4.8 km/h 94% 0.0 mm 97 W/m2
10:47 5.9 °C 5 °C 1023.4 hPa WSW 4.7 km/h 11.3 km/h 94% 0.0 mm 88 W/m2
10:52 5.9 °C 5 °C 1023.4 hPa WNW 4.7 km/h 11.3 km/h 94% 0.0 mm 90 W/m2
10:57 5.9 °C 5 °C 1023.7 hPa NW 4.7 km/h 11.3 km/h 94% 0.0 mm 77 W/m2
11:02 5.9 °C 5 °C 1023.7 hPa West 3.2 km/h 8 km/h 94% 0.0 mm 77 W/m2
11:07 5.9 °C 5 °C 1023.7 hPa NW 4.7 km/h 6.4 km/h 94% 0.0 mm 62 W/m2
11:12 5.9 °C 5 °C 1023.7 hPa NW 4.7 km/h 11.3 km/h 94% 0.0 mm 83 W/m2
11:17 6 °C 5.1 °C 1023.7 hPa WNW 3.2 km/h 6.4 km/h 94% 0.0 mm 88 W/m2
11:22 6.1 °C 5.2 °C 1023.7 hPa Calm   11.3 km/h 94% 0.0 mm 97 W/m2
11:27 6.1 °C 5.2 °C 1023.7 hPa WSW 4.7 km/h 6.4 km/h 94% 0.0 mm 72 W/m2
11:32 6.2 °C 5.2 °C 1023.7 hPa Calm   1.6 km/h 93% 0.0 mm 54 W/m2
11:37 6.2 °C 5.2 °C 1023.7 hPa West 1.4 km/h 6.4 km/h 93% 0.0 mm 62 W/m2
11:42 6.2 °C 5.2 °C 1023.7 hPa Calm   3.2 km/h 93% 0.0 mm 79 W/m2
11:47 6.2 °C 5.2 °C 1023.4 hPa WSW 4.7 km/h 6.4 km/h 93% 0.0 mm 91 W/m2
11:53 6.3 °C 5.3 °C 1023.7 hPa WNW 3.2 km/h 6.4 km/h 93% 0.0 mm 72 W/m2
11:58 6.3 °C 5.3 °C 1023.7 hPa Calm   3.2 km/h 93% 0.0 mm 72 W/m2
12:03 6.4 °C 5.4 °C 1023.7 hPa Calm     93% 0.0 mm 67 W/m2
12:08 6.5 °C 5.4 °C 1023.4 hPa WNW 3.2 km/h 3.2 km/h 93% 0.0 mm 79 W/m2
12:13 6.5 °C 5.4 °C 1023.4 hPa Calm   4.8 km/h 93% 0.0 mm 132 W/m2
12:18 6.5 °C 5.4 °C 1023.4 hPa Calm   3.2 km/h 93% 0.0 mm 91 W/m2
12:23 6.6 °C 5.5 °C 1023.4 hPa Calm   4.8 km/h 93% 0.0 mm 69 W/m2
12:28 6.6 °C 5.5 °C 1023.7 hPa NE 3.2 km/h 6.4 km/h 93% 0.0 mm 65 W/m2
12:33 6.6 °C 5.5 °C 1023.7 hPa Calm   3.2 km/h 93% 0.0 mm 84 W/m2
12:38 6.6 °C 5.5 °C 1023.7 hPa West 1.4 km/h 1.6 km/h 93% 0.0 mm 62 W/m2
12:43 6.7 °C 5.6 °C 1023.7 hPa Calm     93% 0.0 mm 69 W/m2
12:48 6.7 °C 5.6 °C 1023.7 hPa West 1.4 km/h 8 km/h 93% 0.0 mm 69 W/m2
12:53 6.7 °C 5.6 °C 1023.7 hPa SW 1.4 km/h 3.2 km/h 93% 0.0 mm 81 W/m2
12:58 6.8 °C 5.7 °C 1023.7 hPa WNW 3.2 km/h 8 km/h 93% 0.0 mm 100 W/m2
13:03 6.8 °C 5.7 °C 1023.4 hPa Calm     93% 0.0 mm 114 W/m2
13:08 6.8 °C 5.7 °C 1023.4 hPa North 1.4 km/h 3.2 km/h 93% 0.0 mm 128 W/m2
13:13 6.9 °C 6 °C 1023.4 hPa Calm   1.6 km/h 94% 0.0 mm 83 W/m2
13:18 6.9 °C 6 °C 1023.4 hPa NW 1.4 km/h 3.2 km/h 94% 0.0 mm 105 W/m2
13:23 7 °C 6.1 °C 1023.4 hPa Calm   4.8 km/h 94% 0.0 mm 114 W/m2
13:28 7.1 °C 6 °C 1023.4 hPa Calm   4.8 km/h 93% 0.0 mm 116 W/m2
13:33 7.1 °C 6 °C 1023.4 hPa ENE 3.2 km/h 3.2 km/h 93% 0.0 mm 114 W/m2
13:38 7.2 °C 6.1 °C 1023.4 hPa NE 1.4 km/h 3.2 km/h 93% 0.0 mm 104 W/m2
13:43 7.2 °C 6.1 °C 1023.4 hPa WNW 6.4 km/h 6.4 km/h 93% 0.0 mm 91 W/m2
13:48 7.2 °C 6.1 °C 1023.4 hPa ESE 4.7 km/h 4.8 km/h 93% 0.0 mm 77 W/m2
13:53 7.2 °C 6.1 °C 1023.4 hPa Calm   3.2 km/h 93% 0.0 mm 60 W/m2
13:58 7.2 °C 6 °C 1023.4 hPa WNW 3.2 km/h 4.8 km/h 92% 0.0 mm 53 W/m2
14:03 7.2 °C 6 °C 1023.4 hPa WNW 4.7 km/h 4.8 km/h 92% 0.0 mm 53 W/m2
14:08 7.3 °C 6.1 °C 1023.4 hPa West 3.2 km/h 3.2 km/h 92% 0.0 mm 47 W/m2
14:13 7.3 °C 6.1 °C 1023.4 hPa SSE 3.2 km/h 6.4 km/h 92% 0.0 mm 44 W/m2
14:18 7.3 °C 6.1 °C 1023.4 hPa West 4.7 km/h 4.8 km/h 92% 0.0 mm 46 W/m2
14:23 7.3 °C 6.1 °C 1023.4 hPa Calm   3.2 km/h 92% 0.0 mm 35 W/m2
14:28 7.3 °C 6.1 °C 1023.4 hPa West 4.7 km/h 6.4 km/h 92% 0.0 mm 33 W/m2
14:33 7.2 °C 6 °C 1023.4 hPa Calm   4.8 km/h 92% 0.0 mm 33 W/m2
14:38 7.3 °C 6.1 °C 1023.4 hPa Calm   6.4 km/h 92% 0.0 mm 54 W/m2
14:43 7.3 °C 6.1 °C 1023.0 hPa NE 1.4 km/h 3.2 km/h 92% 0.0 mm 46 W/m2
14:48 7.3 °C 6.1 °C 1023.4 hPa NW 1.4 km/h 3.2 km/h 92% 0.0 mm 49 W/m2
14:53 7.3 °C 6.1 °C 1023.4 hPa WNW 3.2 km/h 6.4 km/h 92% 0.0 mm 44 W/m2
14:58 7.3 °C 6.1 °C 1023.4 hPa Calm   3.2 km/h 92% 0.0 mm 35 W/m2
15:03 7.4 °C 6.3 °C 1023.4 hPa North 1.4 km/h 4.8 km/h 93% 0.0 mm 28 W/m2
15:08 7.4 °C 6.2 °C 1023.4 hPa WNW 3.2 km/h 4.8 km/h 92% 0.0 mm 26 W/m2
15:13 7.4 °C 6.2 °C 1023.4 hPa Calm   6.4 km/h 92% 0.0 mm 25 W/m2
15:18 7.5 °C 6.3 °C 1023.7 hPa NW 1.4 km/h 3.2 km/h 92% 0.0 mm 26 W/m2
15:23 7.5 °C 6.3 °C 1023.7 hPa NW 4.7 km/h 8 km/h 92% 0.0 mm 18 W/m2
15:28 7.5 °C 6.3 °C 1023.7 hPa WSW 3.2 km/h 6.4 km/h 92% 0.0 mm 16 W/m2
15:33 7.5 °C 6.3 °C 1023.7 hPa Calm   4.8 km/h 92% 0.0 mm 16 W/m2
15:38 7.5 °C 6.3 °C 1023.7 hPa WNW 3.2 km/h 6.4 km/h 92% 0.0 mm 14 W/m2
15:43 7.5 °C 6.3 °C 1023.7 hPa West 1.4 km/h 4.8 km/h 92% 0.0 mm 12 W/m2
15:48 7.6 °C 6.4 °C 1023.7 hPa Calm   6.4 km/h 92% 0.0 mm 12 W/m2
15:53 7.6 °C 6.4 °C 1023.7 hPa West 3.2 km/h 3.2 km/h 92% 0.0 mm 11 W/m2
15:58 7.5 °C 6.3 °C 1024.0 hPa WNW 1.4 km/h 3.2 km/h 92% 0.0 mm 11 W/m2
16:03 7.5 °C 6.3 °C 1024.0 hPa Calm   1.6 km/h 92% 0.0 mm 11 W/m2
16:08 7.5 °C 6.3 °C 1024.0 hPa Calm   1.6 km/h 92% 0.0 mm 7 W/m2
16:13 7.5 °C 6.3 °C 1024.0 hPa West 1.4 km/h 1.6 km/h 92% 0.0 mm 7 W/m2
16:18 7.5 °C 6.4 °C 1024.0 hPa NW 1.4 km/h 4.8 km/h 93% 0.0 mm 5 W/m2
16:23 7.5 °C 6.4 °C 1024.0 hPa WNW 1.4 km/h 3.2 km/h 93% 0.0 mm 0 W/m2
16:28 7.5 °C 6.4 °C 1024.0 hPa Calm   1.6 km/h 93% 0.0 mm 0 W/m2
16:33 7.5 °C 6.4 °C 1024.0 hPa NW 4.7 km/h 4.8 km/h 93% 0.0 mm 0 W/m2
16:38 7.5 °C 6.4 °C 1024.0 hPa WNW 4.7 km/h 4.8 km/h 93% 0.0 mm 0 W/m2
16:43 7.4 °C 6.3 °C 1024.0 hPa WNW 1.4 km/h 3.2 km/h 93% 0.0 mm 0 W/m2
16:48 7.4 °C 6.3 °C 1024.0 hPa Calm     93% 0.0 mm 0 W/m2
16:53 7.4 °C 6.3 °C 1024.0 hPa Calm     93% 0.0 mm 0 W/m2
16:58 7.4 °C 6.3 °C 1024.0 hPa Calm   1.6 km/h 93% 0.0 mm 0 W/m2
17:03 7.4 °C 6.3 °C 1024.0 hPa Calm     93% 0.0 mm 0 W/m2
17:08 7.4 °C 6.5 °C 1024.4 hPa West 3.2 km/h 3.2 km/h 94% 0.0 mm 0 W/m2
17:13 7.4 °C 6.5 °C 1024.4 hPa Calm   3.2 km/h 94% 0.0 mm 0 W/m2
17:18 7.3 °C 6.4 °C 1024.4 hPa Calm   3.2 km/h 94% 0.0 mm 0 W/m2
17:23 7.3 °C 6.4 °C 1024.4 hPa Calm   3.2 km/h 94% 0.0 mm 0 W/m2
17:28 7.3 °C 6.4 °C 1024.4 hPa Calm     94% 0.0 mm 0 W/m2
17:33 7.3 °C 6.4 °C 1024.4 hPa Calm     94% 0.0 mm 0 W/m2
17:38 7.3 °C 6.4 °C 1024.4 hPa Calm   1.6 km/h 94% 0.0 mm 0 W/m2
17:43 7.3 °C 6.4 °C 1024.4 hPa Calm     94% 0.0 mm 0 W/m2
17:49 7.3 °C 6.4 °C 1024.7 hPa Calm     94% 0.0 mm 0 W/m2
17:54 7.3 °C 6.4 °C 1024.7 hPa Calm     94% 0.0 mm 0 W/m2
17:59 7.3 °C 6.4 °C 1024.4 hPa Calm     94% 0.0 mm 0 W/m2
18:04 7.3 °C 6.4 °C 1024.4 hPa Calm   1.6 km/h 94% 0.0 mm 0 W/m2
18:09 7.3 °C 6.4 °C 1024.4 hPa Calm     94% 0.0 mm 0 W/m2
18:14 7.3 °C 6.4 °C 1024.4 hPa Calm   1.6 km/h 94% 0.0 mm 0 W/m2
18:19 7.3 °C 6.4 °C 1024.7 hPa Calm   1.6 km/h 94% 0.0 mm 0 W/m2
18:24 7.3 °C 6.4 °C 1024.7 hPa Calm   1.6 km/h 94% 0.0 mm 0 W/m2
18:29 7.4 °C 6.5 °C 1024.7 hPa Calm   4.8 km/h 94% 0.0 mm 0 W/m2
18:34 7.4 °C 6.5 °C 1025.1 hPa Calm   1.6 km/h 94% 0.0 mm 0 W/m2
18:39 7.4 °C 6.5 °C 1025.1 hPa Calm   4.8 km/h 94% 0.0 mm 0 W/m2
18:44 7.4 °C 6.5 °C 1025.1 hPa Calm   1.6 km/h 94% 0.0 mm 0 W/m2
18:49 7.4 °C 6.5 °C 1025.1 hPa Calm   3.2 km/h 94% 0.0 mm 0 W/m2
18:54 7.4 °C 6.5 °C 1025.4 hPa WNW 3.2 km/h 6.4 km/h 94% 0.0 mm 0 W/m2
18:59 7.4 °C 6.5 °C 1025.4 hPa Calm   4.8 km/h 94% 0.0 mm 0 W/m2
19:04 7.4 °C 6.5 °C 1025.4 hPa West 1.4 km/h 4.8 km/h 94% 0.0 mm 0 W/m2
19:09 7.4 °C 6.7 °C 1025.4 hPa West 4.7 km/h 6.4 km/h 95% 0.0 mm 0 W/m2
19:14 7.4 °C 6.7 °C 1025.4 hPa Calm   3.2 km/h 95% 0.0 mm 0 W/m2
19:19 7.4 °C 6.7 °C 1025.7 hPa WNW 6.4 km/h 6.4 km/h 95% 0.0 mm 0 W/m2
19:24 7.4 °C 6.7 °C 1025.7 hPa West 3.2 km/h 4.8 km/h 95% 0.0 mm 0 W/m2
19:29 7.4 °C 6.7 °C 1025.7 hPa Calm   3.2 km/h 95% 0.0 mm 0 W/m2
19:34 7.4 °C 6.7 °C 1025.7 hPa WSW 6.4 km/h 6.4 km/h 95% 0.0 mm 0 W/m2
19:39 7.4 °C 6.7 °C 1026.1 hPa West 3.2 km/h 9.7 km/h 95% 0.0 mm 0 W/m2
19:44 7.5 °C 6.8 °C 1026.1 hPa WNW 6.4 km/h 6.4 km/h 95% 0.0 mm 0 W/m2
19:49 7.4 °C 6.7 °C 1026.1 hPa WSW 6.4 km/h 9.7 km/h 95% 0.0 mm 0 W/m2
19:54 7.4 °C 6.7 °C 1026.1 hPa WNW 4.7 km/h 6.4 km/h 95% 0.0 mm 0 W/m2
19:59 7.4 °C 6.7 °C 1026.1 hPa Calm   4.8 km/h 95% 0.0 mm 0 W/m2
20:04 7.4 °C 6.7 °C 1026.1 hPa NW 3.2 km/h 4.8 km/h 95% 0.0 mm 0 W/m2
20:09 7.4 °C 6.7 °C 1026.4 hPa Calm   1.6 km/h 95% 0.0 mm 0 W/m2
20:14 7.4 °C 6.7 °C 1026.4 hPa WNW 4.8 km/h 4.8 km/h 95% 0.0 mm 0 W/m2
20:19 7.4 °C 6.7 °C 1026.4 hPa Calm   1.6 km/h 95% 0.0 mm 0 W/m2
20:24 7.4 °C 6.7 °C 1026.4 hPa Calm     95% 0.0 mm 0 W/m2
20:29 7.4 °C 6.7 °C 1026.4 hPa WNW 3.2 km/h 3.2 km/h 95% 0.0 mm 0 W/m2
20:34 7.4 °C 6.7 °C 1026.8 hPa Calm   4.8 km/h 95% 0.0 mm 0 W/m2
20:39 7.4 °C 6.7 °C 1026.8 hPa West 4.7 km/h 4.8 km/h 95% 0.0 mm 0 W/m2
20:44 7.4 °C 6.7 °C 1026.8 hPa NW 3.2 km/h 6.4 km/h 95% 0.0 mm 0 W/m2
20:49 7.4 °C 6.7 °C 1026.8 hPa West 3.2 km/h 6.4 km/h 95% 0.0 mm 0 W/m2
20:54 7.4 °C 6.7 °C 1026.8 hPa WNW 4.7 km/h 6.4 km/h 95% 0.0 mm 0 W/m2
20:59 7.4 °C 6.7 °C 1026.8 hPa NW 6.4 km/h 8 km/h 95% 0.0 mm 0 W/m2
21:04 7.4 °C 6.7 °C 1026.8 hPa West 1.4 km/h 8 km/h 95% 0.0 mm 0 W/m2
21:09 7.4 °C 6.7 °C 1026.8 hPa West 4.7 km/h 6.4 km/h 95% 0.0 mm 0 W/m2
21:14 7.4 °C 6.7 °C 1026.8 hPa WNW 4.7 km/h 8 km/h 95% 0.0 mm 0 W/m2
21:19 7.4 °C 6.7 °C 1027.1 hPa WNW 1.4 km/h 6.4 km/h 95% 0.0 mm 0 W/m2
21:24 7.4 °C 6.7 °C 1027.1 hPa Calm   4.8 km/h 95% 0.0 mm 0 W/m2
21:29 7.4 °C 6.7 °C 1027.1 hPa Calm   6.4 km/h 95% 0.0 mm 0 W/m2
21:34 7.4 °C 6.7 °C 1027.1 hPa Calm     95% 0.0 mm 0 W/m2
21:39 7.3 °C 6.6 °C 1027.1 hPa Calm   3.2 km/h 95% 0.0 mm 0 W/m2
21:44 7.3 °C 6.6 °C 1027.4 hPa Calm   1.6 km/h 95% 0.0 mm 0 W/m2
21:49 7.3 °C 6.6 °C 1027.4 hPa West 3.2 km/h 4.8 km/h 95% 0.0 mm 0 W/m2
21:54 7.3 °C 6.6 °C 1027.4 hPa West 3.2 km/h 6.4 km/h 95% 0.0 mm 0 W/m2
21:59 7.4 °C 6.7 °C 1027.4 hPa WSW 3.2 km/h 4.8 km/h 95% 0.0 mm 0 W/m2
22:04 7.4 °C 6.7 °C 1027.4 hPa WNW 7.9 km/h 11.3 km/h 95% 0.0 mm 0 W/m2
22:09 7.4 °C 6.7 °C 1027.4 hPa West 4.7 km/h 6.4 km/h 95% 0.0 mm 0 W/m2
22:14 7.4 °C 6.7 °C 1027.4 hPa West 1.4 km/h 3.2 km/h 95% 0.0 mm 0 W/m2
22:19 7.4 °C 6.7 °C 1027.4 hPa Calm   1.6 km/h 95% 0.0 mm 0 W/m2
22:24 7.4 °C 6.7 °C 1027.4 hPa West 1.4 km/h 3.2 km/h 95% 0.0 mm 0 W/m2
22:29 7.3 °C 6.6 °C 1027.4 hPa Calm   4.8 km/h 95% 0.0 mm 0 W/m2
22:34 7.3 °C 6.6 °C 1027.4 hPa Calm   3.2 km/h 95% 0.0 mm 0 W/m2
22:39 7.2 °C 6.5 °C 1027.4 hPa West 1.4 km/h 4.8 km/h 95% 0.0 mm 0 W/m2
22:44 7.2 °C 6.5 °C 1027.4 hPa West 4.7 km/h 6.4 km/h 95% 0.0 mm 0 W/m2
22:49 7.2 °C 6.5 °C 1027.4 hPa West 3.2 km/h 4.8 km/h 95% 0.0 mm 0 W/m2
22:54 7.2 °C 6.5 °C 1027.4 hPa West 3.2 km/h 8 km/h 95% 0.0 mm 0 W/m2
22:59 7.2 °C 6.5 °C 1027.4 hPa West 3.2 km/h 4.8 km/h 95% 0.0 mm 0 W/m2
23:04 7.2 °C 6.5 °C 1027.4 hPa Calm   6.4 km/h 95% 0.0 mm 0 W/m2
23:09 7.1 °C 6.4 °C 1027.4 hPa West 3.2 km/h 3.2 km/h 95% 0.0 mm 0 W/m2
23:14 7.1 °C 6.4 °C 1027.4 hPa Calm     95% 0.0 mm 0 W/m2
23:19 7.1 °C 6.4 °C 1027.8 hPa West 3.2 km/h 3.2 km/h 95% 0.0 mm 0 W/m2
23:24 7.1 °C 6.4 °C 1027.8 hPa Calm     95% 0.0 mm 0 W/m2
23:29 7.1 °C 6.4 °C 1027.8 hPa Calm     95% 0.0 mm 0 W/m2
23:34 7.1 °C 6.4 °C 1027.8 hPa Calm     95% 0.0 mm 0 W/m2
23:39 7 °C 6.3 °C 1027.8 hPa Calm     95% 0.0 mm 0 W/m2
23:44 6.9 °C 6.2 °C 1027.8 hPa West 1.4 km/h 1.6 km/h 95% 0.0 mm 0 W/m2
23:49 6.9 °C 6.2 °C 1027.8 hPa Calm   3.2 km/h 95% 0.0 mm 0 W/m2
23:54 6.9 °C 6.2 °C 1027.8 hPa Calm   3.2 km/h 95% 0.0 mm 0 W/m2
23:59 6.9 °C 6.2 °C 1027.8 hPa NW 1.4 km/h 3.2 km/h 95% 0.0 mm 0 W/m2
Juneau County Weather
Compliments of Weather Underground - 4 mb